Regional Weather Roundup
Issued by NWS

Home | Current Version | Previous Version | Text Only | Print | Product List | Glossary On
Versions: 1 2 3 4 5 6 7 8 9 10 11 12 13 14 15 16 17 18 19 20 21 22 23 24 25 26 27 28 29 30 31 32 33 34 35 36 37 38 39 40 41 42 43 44 45 46 47 48 49 50
000
ASCA42 TJSJ 031210
RWRPR
PUERTO RICO/U.S. VIRGIN ISLANDS HOURLY WEATHER ROUNDUP
NATIONAL WEATHER SERVICE SAN JUAN PR
800 AM AST SUN MAY 03 2015

PRZ001-004-031300-
PUERTO RICO

CITY           SKY/WX    TMP DP  RH WIND       PRES   REMARKS
SAN JUAN LMM   MOSUNNY   82  72  69 E6        30.00R
AGUADILLA      SUNNY     81  64  57 CALM      30.00
$$

PRZ006-007-031300-
U.S. VIRGIN ISLANDS

CITY           SKY/WX    TMP DP  RH WIND       PRES   REMARKS
CHARLOTTE AMA  PTSUNNY   82  73  74 SE15      30.00R
CHRISTIANSTED  MOSUNNY   82  72  69 SE9       30.00R
$$

HOURLY WEATHER ROUNDUP FOR THE NEWS MEDIA

CITY           SKY/WX    TMP DP  RH WIND       PRES   REMARKS
ORLANDO        SUNNY     67  58  72 NE3       30.13R
NEW YORK       MOSUNNY   54  41  61 SW8       30.10R
NEWARK         MOSUNNY   53  41  63 SW3       30.09R
CHICAGO        PTSUNNY   57  45  64 S3        29.97S
HARTFORD       CLOUDY    50  39  66 SW5       30.07R
BOSTON         PTSUNNY   53  40  61 W5        30.06R
DALLAS         PTCLDY    64  53  67 S5        29.99R
PHILADELPHIA   PTSUNNY   54  43  66 CALM      30.10R
LOS ANGELES    CLOUDY    59  53  80 N5        29.89S
WASHINGTON DC  MOSUNNY   56  48  74 CALM      30.12R


USA.gov is the U.S. government's official web portal to all federal, state and local government web resources and services.